Location: Unspecified
(0.0000°N, 0.0000°E)
Time: 17:24:00
(UTC+00:00)

STARLINK 1061 - Pass Details

Date: 22 January 2020
Orbit: 549 x 551 km, 53.0° (Epoch: 22 January)

Event Time Altitude Azimuth Distance (km) Brightness Sun altitude
Rises 05:10:20 0° 223° (SW) 2,714 6.9 -14.3°
Reaches altitude 10° 05:12:37 10° 229° (SW) 1,818 6.0 -13.8°
Maximum altitude 05:16:36 48° 304° (WNW) 715 3.8 -12.9°
Drops below altitude 10° 05:20:35 10° 19° (NNE) 1,809 6.2 -11.9°
Sets 05:22:51 0° 25° (NNE) 2,699 7.2 -11.4°
